TimeEDT,TemperatureF,Dew PointF,Humidity,Sea Level PressureIn,VisibilityMPH,Wind Direction,Wind SpeedMPH,Gust SpeedMPH,PrecipitationIn,Events,Conditions,WindDirDegrees,DateUTC
12:15 AM,47.5,44.6,90,30.05,10.0,Calm,Calm,-,N/A,,Clear,0,2013-10-12 04:15:00
12:35 AM,47.8,44.8,89,30.06,10.0,Calm,Calm,-,N/A,,Clear,0,2013-10-12 04:35:00
12:55 AM,47.1,44.1,89,30.06,10.0,Calm,Calm,-,N/A,,Clear,0,2013-10-12 04:55:00
1:15 AM,46.8,43.9,90,30.06,7.0,Calm,Calm,-,N/A,,Clear,0,2013-10-12 05:15:00
1:35 AM,46.8,43.9,90,30.06,10.0,Calm,Calm,-,N/A,,Clear,0,2013-10-12 05:35:00
1:55 AM,46.4,43.5,90,30.06,10.0,Calm,Calm,-,N/A,,Clear,0,2013-10-12 05:55:00
2:15 AM,46.2,43.2,89,30.06,10.0,Calm,Calm,-,N/A,,Clear,0,2013-10-12 06:15:00
2:35 AM,45.9,43.0,90,30.06,10.0,Calm,Calm,-,N/A,,Clear,0,2013-10-12 06:35:00
2:55 AM,46.0,43.2,90,30.07,10.0,Calm,Calm,-,N/A,,Clear,0,2013-10-12 06:55:00
3:15 AM,45.9,43.0,90,30.06,10.0,Calm,Calm,-,N/A,,Clear,0,2013-10-12 07:15:00
3:35 AM,45.7,42.8,90,30.07,10.0,Calm,Calm,-,N/A,,Clear,0,2013-10-12 07:35:00
3:55 AM,45.5,42.8,90,30.06,10.0,Calm,Calm,-,N/A,,Clear,0,2013-10-12 07:55:00
4:15 AM,45.3,42.4,90,30.06,7.0,Calm,Calm,-,N/A,,Clear,0,2013-10-12 08:15:00
4:35 AM,45.9,43.2,90,30.06,5.0,ESE,3.5,-,N/A,,Clear,110,2013-10-12 08:35:00
4:55 AM,45.0,42.1,90,30.06,7.0,Calm,Calm,-,N/A,,Clear,0,2013-10-12 08:55:00
5:15 AM,44.6,41.9,90,30.06,7.0,Calm,Calm,-,N/A,,Clear,0,2013-10-12 09:15:00
5:35 AM,44.4,41.5,90,30.06,7.0,Calm,Calm,-,N/A,,Clear,0,2013-10-12 09:35:00
5:55 AM,45.0,42.3,90,30.06,5.0,Calm,Calm,-,N/A,,Clear,0,2013-10-12 09:55:00
6:15 AM,44.6,41.9,90,30.07,5.0,Calm,Calm,-,N/A,,Clear,0,2013-10-12 10:15:00
6:35 AM,44.6,41.9,90,30.07,5.0,Calm,Calm,-,N/A,,Clear,0,2013-10-12 10:35:00
6:55 AM,44.4,41.7,90,30.07,4.0,Calm,Calm,-,N/A,,Clear,0,2013-10-12 10:55:00
7:15 AM,43.9,41.2,90,30.08,7.0,Calm,Calm,-,N/A,,Clear,0,2013-10-12 11:15:00
7:35 AM,43.9,41.2,90,30.08,7.0,Calm,Calm,-,N/A,,Clear,0,2013-10-12 11:35:00
7:55 AM,43.9,41.2,90,30.08,7.0,Calm,Calm,-,N/A,,Clear,0,2013-10-12 11:55:00
8:15 AM,44.2,41.5,90,30.08,5.0,Calm,Calm,-,N/A,,Clear,0,2013-10-12 12:15:00
8:35 AM,47.1,44.6,91,30.08,5.0,Calm,Calm,-,N/A,,Clear,0,2013-10-12 12:35:00
8:55 AM,51.4,48.7,90,30.09,5.0,Calm,Calm,-,N/A,,Clear,0,2013-10-12 12:55:00
9:15 AM,54.7,52.0,91,30.09,7.0,Calm,Calm,-,N/A,,Clear,0,2013-10-12 13:15:00
9:35 AM,57.6,53.2,85,30.09,10.0,SE,3.5,-,N/A,,Clear,140,2013-10-12 13:35:00
9:55 AM,60.8,52.7,75,30.09,10.0,SSE,3.5,-,N/A,,Clear,150,2013-10-12 13:55:00
10:15 AM,63.5,52.7,68,30.09,10.0,SSW,3.5,-,N/A,,Clear,200,2013-10-12 14:15:00
10:35 AM,65.8,51.6,60,30.09,10.0,South,4.6,-,N/A,,Clear,180,2013-10-12 14:35:00
10:55 AM,68.2,51.1,54,30.09,10.0,SSE,4.6,-,N/A,,Clear,160,2013-10-12 14:55:00
11:15 AM,69.1,51.3,53,30.09,10.0,SSE,3.5,-,N/A,,Clear,150,2013-10-12 15:15:00
11:35 AM,70.7,50.7,49,30.09,10.0,SSE,4.6,-,N/A,,Clear,160,2013-10-12 15:35:00
11:55 AM,72.1,51.1,47,30.09,10.0,South,6.9,-,N/A,,Clear,190,2013-10-12 15:55:00
12:15 PM,73.2,51.6,47,30.09,10.0,South,4.6,-,N/A,,Clear,170,2013-10-12 16:15:00
12:35 PM,73.9,52.2,46,30.10,10.0,SSW,6.9,-,0.01,,Clear,200,2013-10-12 16:35:00
12:55 PM,75.0,52.7,46,30.09,10.0,South,6.9,-,0.01,,Clear,180,2013-10-12 16:55:00
1:15 PM,75.7,52.9,45,30.09,10.0,SSW,6.9,-,N/A,,Clear,210,2013-10-12 17:15:00
1:35 PM,76.1,51.4,42,30.08,10.0,South,6.9,-,N/A,,Clear,180,2013-10-12 17:35:00
1:55 PM,76.6,52.3,43,30.08,10.0,SSW,8.1,-,N/A,,Clear,210,2013-10-12 17:55:00
2:15 PM,76.6,52.9,43,30.07,10.0,SW,5.8,-,N/A,,Clear,220,2013-10-12 18:15:00
2:35 PM,77.0,53.1,43,30.06,10.0,SSE,5.8,-,N/A,,Clear,150,2013-10-12 18:35:00
2:55 PM,77.5,52.9,42,30.06,10.0,South,8.1,-,N/A,,Clear,170,2013-10-12 18:55:00
3:15 PM,77.5,54.0,44,30.05,10.0,South,5.8,-,N/A,,Clear,180,2013-10-12 19:15:00
3:35 PM,77.4,52.7,42,30.05,10.0,SW,10.4,-,N/A,,Clear,220,2013-10-12 19:35:00
3:55 PM,76.3,52.7,44,30.06,10.0,South,9.2,-,N/A,,Clear,190,2013-10-12 19:55:00
4:15 PM,75.2,53.1,46,30.06,10.0,South,6.9,-,N/A,,Clear,180,2013-10-12 20:15:00
4:35 PM,75.4,53.6,47,30.06,10.0,SSW,6.9,-,N/A,,Clear,200,2013-10-12 20:35:00
4:55 PM,74.8,54.0,48,30.06,10.0,SSW,4.6,-,N/A,,Clear,200,2013-10-12 20:55:00
5:15 PM,74.7,53.8,48,30.07,10.0,SW,6.9,-,N/A,,Scattered Clouds,230,2013-10-12 21:15:00
5:35 PM,73.6,54.0,50,30.07,10.0,WSW,5.8,-,N/A,,Scattered Clouds,250,2013-10-12 21:35:00
5:55 PM,73.0,54.9,53,30.07,10.0,WSW,3.5,-,N/A,,Scattered Clouds,240,2013-10-12 21:55:00
6:15 PM,73.0,55.4,54,30.07,10.0,WSW,3.5,-,N/A,,Clear,240,2013-10-12 22:15:00
6:35 PM,73.0,55.4,54,30.07,10.0,Calm,Calm,-,N/A,,Clear,0,2013-10-12 22:35:00
6:55 PM,71.1,55.6,58,30.07,10.0,Calm,Calm,-,N/A,,Clear,0,2013-10-12 22:55:00
7:15 PM,67.6,56.1,67,30.08,10.0,Calm,Calm,-,N/A,,Scattered Clouds,0,2013-10-12 23:15:00
7:35 PM,63.1,56.1,78,30.08,10.0,Calm,Calm,-,N/A,,Clear,0,2013-10-12 23:35:00
7:55 PM,62.8,56.5,80,30.08,10.0,Calm,Calm,-,N/A,,Mostly Cloudy,0,2013-10-12 23:55:00
8:15 PM,61.9,56.5,82,30.08,10.0,Calm,Calm,-,N/A,,Scattered Clouds,0,2013-10-13 00:15:00
8:35 PM,62.4,56.3,80,30.09,10.0,Calm,Calm,-,N/A,,Mostly Cloudy,0,2013-10-13 00:35:00
8:55 PM,62.1,56.7,82,30.10,10.0,Calm,Calm,-,N/A,,Overcast,0,2013-10-13 00:55:00
9:15 PM,62.6,57.6,84,30.10,10.0,Calm,Calm,-,N/A,,Overcast,0,2013-10-13 01:15:00
9:35 PM,63.7,58.1,82,30.11,10.0,Calm,Calm,-,N/A,,Overcast,0,2013-10-13 01:35:00
9:55 PM,63.9,58.3,82,30.11,10.0,Calm,Calm,-,N/A,,Overcast,0,2013-10-13 01:55:00
10:15 PM,63.5,58.1,83,30.11,10.0,Calm,Calm,-,N/A,,Overcast,0,2013-10-13 02:15:00
10:35 PM,63.7,58.5,83,30.12,10.0,Calm,Calm,-,N/A,,Overcast,0,2013-10-13 02:35:00
10:55 PM,64.4,58.8,82,30.13,10.0,Calm,Calm,-,N/A,,Overcast,0,2013-10-13 02:55:00
11:15 PM,64.0,58.5,82,30.13,10.0,Calm,Calm,-,N/A,,Overcast,0,2013-10-13 03:15:00
11:35 PM,63.5,58.5,84,30.14,10.0,Calm,Calm,-,N/A,,Overcast,0,2013-10-13 03:35:00
11:55 PM,64.8,58.8,81,30.14,10.0,WNW,4.6,-,N/A,,Overcast,300,2013-10-13 03:55:00